Location: Kirkland Lake
(48.1510°N, 80.0330°W)
Time: 10:55:17
(UTC-05:00)

ISS - Visible Passes

Search period start: 19 February 2018 00:00
Search period end: 01 March 2018 00:00
Orbit: 403 x 407 km, 51.6° (Epoch: 20 February)

Date Brightness Start Highest point End Pass type
(mag) Time Alt. Az. Time Alt. Az. Time Alt. Az.
26 Feb -1.4 06:35:01 10° SSW 06:37:41 23° SE 06:40:21 10° E visible
27 Feb -0.9 05:43:48 10° S 05:45:37 14° SE 05:47:26 10° ESE visible
28 Feb -2.8 06:26:14 10° SW 06:29:23 44° SSE 06:32:32 10° ENE visible
